• In Hungary
  • List of Countries
  • For 7 days
  • Water Temperature
  • Satellite Maps
  • Weather Map
  • News
  • Weather Widgets
  • user-avatar
    Login

    Hourly Weather Kazar

    Today, 21 August, Tuesday

    Time Temperature Precipitation Wind Pressure Humidity
    00:00 +19°C° 0 mm 2 mps 750 mmHg 79%
    01:00 +18°C° 0 mm 2 mps 750 mmHg 80%
    02:00 +18°C° 0 mm 2 mps 750 mmHg 81%
    03:00 +18°C° 0 mm 2 mps 750 mmHg 82%
    04:00 +18°C° 0.1 mm 2 mps 749 mmHg 82%
    05:00 +18°C° 0.1 mm 3 mps 749 mmHg 83%
    06:00 +18°C° 0.1 mm 3 mps 749 mmHg 84%
    07:00 +20°C° 0 mm 4 mps 749 mmHg 76%
    08:00 +22°C° 0 mm 5 mps 748 mmHg 69%
    09:00 +24°C° 0 mm 6 mps 748 mmHg 60%
    10:00 +26°C° 0 mm 6 mps 748 mmHg 56%
    11:00 +28°C° 0 mm 7 mps 747 mmHg 51%
    12:00 +29°C° 0 mm 8 mps 747 mmHg 46%
    13:00 +29°C° 0.2 mm 8 mps 746 mmHg 48%
    14:00 +29°C° 0.2 mm 8 mps 746 mmHg 49%
    15:00 +29°C° 0.2 mm 8 mps 746 mmHg 51%
    16:00 +27°C° 1.4 mm 7 mps 745 mmHg 59%
    17:00 +24°C° 1.4 mm 7 mps 745 mmHg 68%
    18:00 +22°C° 1.4 mm 6 mps 745 mmHg 77%
    19:00 +21°C° 1.1 mm 5 mps 745 mmHg 81%
    20:00 +20°C° 1.1 mm 4 mps 745 mmHg 85%
    21:00 +19°C° 1.1 mm 3 mps 745 mmHg 90%
    22:00 +18°C° 0 mm 3 mps 746 mmHg 89%
    23:00 +17°C° 0 mm 3 mps 746 mmHg 88%

    Tomorrow, 22 August, Wednesday

    Time Temperature Precipitation Wind Pressure Humidity
    00:00 +16°C° 0 mm 3 mps 746 mmHg 88%
    01:00 +14°C° 0 mm 3 mps 747 mmHg 88%
    02:00 +13°C° 0 mm 3 mps 747 mmHg 89%
    03:00 +12°C° 0 mm 3 mps 748 mmHg 89%
    04:00 +12°C° 0 mm 3 mps 748 mmHg 89%
    05:00 +11°C° 0 mm 3 mps 748 mmHg 89%
    06:00 +11°C° 0 mm 3 mps 749 mmHg 89%
    07:00 +12°C° 0 mm 4 mps 749 mmHg 81%
    08:00 +14°C° 0 mm 4 mps 749 mmHg 73%
    09:00 +15°C° 0 mm 5 mps 749 mmHg 66%
    10:00 +16°C° 0 mm 5 mps 750 mmHg 60%
    11:00 +19°C° 0 mm 6 mps 750 mmHg 54%
    12:00 +20°C° 0 mm 6 mps 750 mmHg 48%
    13:00 +20°C° 0 mm 6 mps 750 mmHg 46%
    14:00 +21°C° 0 mm 6 mps 751 mmHg 45%
    15:00 +21°C° 0 mm 6 mps 751 mmHg 43%
    16:00 +20°C° 0 mm 5 mps 751 mmHg 46%
    17:00 +20°C° 0 mm 4 mps 752 mmHg 49%
    18:00 +19°C° 0 mm 4 mps 752 mmHg 52%
    19:00 +18°C° 0 mm 3 mps 753 mmHg 56%
    20:00 +16°C° 0 mm 3 mps 753 mmHg 60%
    21:00 +14°C° 0 mm 3 mps 754 mmHg 64%
    22:00 +13°C° 0 mm 3 mps 754 mmHg 66%
    23:00 +12°C° 0 mm 3 mps 754 mmHg 68%

    Day after tomorrow, 23 August, Thursday

    Time Temperature Precipitation Wind Pressure Humidity
    00:00 +11°C° 0 mm 3 mps 755 mmHg 70%
    01:00 +11°C° 0 mm 3 mps 755 mmHg 72%
    02:00 +10°C° 0 mm 2 mps 756 mmHg 74%
    03:00 +10°C° 0 mm 2 mps 756 mmHg 76%
    04:00 +10°C° 0 mm 2 mps 756 mmHg 77%
    05:00 +9°C° 0 mm 2 mps 756 mmHg 78%
    06:00 +9°C° 0 mm 2 mps 757 mmHg 79%
    07:00 +12°C° 0 mm 2 mps 757 mmHg 72%
    08:00 +14°C° 0 mm 2 mps 757 mmHg 65%
    09:00 +17°C° 0 mm 2 mps 757 mmHg 57%
    10:00 +18°C° 0 mm 2 mps 757 mmHg 52%
    11:00 +19°C° 0 mm 3 mps 757 mmHg 46%
    12:00 +20°C° 0 mm 3 mps 757 mmHg 41%
    13:00 +21°C° 0 mm 3 mps 757 mmHg 40%
    14:00 +21°C° 0 mm 3 mps 757 mmHg 39%
    15:00 +21°C° 0 mm 3 mps 757 mmHg 38%
    16:00 +21°C° 0 mm 3 mps 757 mmHg 41%
    17:00 +20°C° 0 mm 2 mps 757 mmHg 45%
    18:00 +20°C° 0 mm 2 mps 756 mmHg 49%
    19:00 +18°C° 0 mm 2 mps 757 mmHg 53%
    20:00 +16°C° 0 mm 2 mps 757 mmHg 58%
    21:00 +14°C° 0 mm 1 mps 757 mmHg 63%
    22:00 +14°C° 0 mm 2 mps 757 mmHg 64%
    23:00 +13°C° 0 mm 2 mps 757 mmHg 66%

    24 August, Friday

    Time Temperature Precipitation Wind Pressure Humidity
    00:00 +13°C° 0 mm 2 mps 757 mmHg 68%
    01:00 +13°C° 0 mm 2 mps 757 mmHg 69%
    02:00 +12°C° 0 mm 2 mps 757 mmHg 71%
    03:00 +12°C° 0 mm 2 mps 758 mmHg 73%
    04:00 +12°C° 0 mm 1 mps 758 mmHg 74%
    05:00 +12°C° 0 mm 1 mps 758 mmHg 75%
    06:00 +12°C° 0 mm 1 mps 757 mmHg 76%
    07:00 +14°C° 0 mm 1 mps 757 mmHg 69%
    08:00 +16°C° 0 mm 2 mps 757 mmHg 62%
    09:00 +18°C° 0 mm 2 mps 757 mmHg 54%
    10:00 +20°C° 0 mm 2 mps 757 mmHg 50%
    11:00 +21°C° 0 mm 2 mps 757 mmHg 46%
    12:00 +23°C° 0 mm 2 mps 757 mmHg 41%
    13:00 +24°C° 0 mm 2 mps 757 mmHg 40%
    14:00 +24°C° 0 mm 2 mps 756 mmHg 39%
    15:00 +25°C° 0 mm 2 mps 756 mmHg 38%
    16:00 +24°C° 0 mm 2 mps 756 mmHg 42%
    17:00 +24°C° 0 mm 2 mps 756 mmHg 46%
    18:00 +23°C° 0 mm 1 mps 755 mmHg 50%
    19:00 +21°C° 0 mm 1 mps 755 mmHg 54%
    20:00 +19°C° 0 mm 1 mps 756 mmHg 59%
    21:00 +16°C° 0 mm 1 mps 756 mmHg 64%
    22:00 +16°C° 0 mm 1 mps 756 mmHg 65%
    23:00 +15°C° 0 mm 1 mps 756 mmHg 67%

    25 August, Saturday

    Time Temperature Precipitation Wind Pressure Humidity
    00:00 +15°C° 0 mm 1 mps 756 mmHg 68%
    01:00 +14°C° 0 mm 1 mps 756 mmHg 69%
    02:00 +14°C° 0 mm 1 mps 756 mmHg 70%
    03:00 +14°C° 0 mm 1 mps 756 mmHg 72%
    04:00 +13°C° 0 mm 1 mps 756 mmHg 72%
    05:00 +13°C° 0 mm 1 mps 756 mmHg 73%
    06:00 +13°C° 0 mm 1 mps 756 mmHg 73%
    07:00 +16°C° 0 mm 1 mps 756 mmHg 66%
    08:00 +18°C° 0 mm 2 mps 756 mmHg 59%
    09:00 +20°C° 0 mm 2 mps 756 mmHg 52%
    10:00 +23°C° 0 mm 2 mps 756 mmHg 47%
    11:00 +24°C° 0 mm 2 mps 756 mmHg 43%
    12:00 +26°C° 0 mm 3 mps 756 mmHg 39%
    13:00 +26°C° 0 mm 3 mps 756 mmHg 38%
    14:00 +27°C° 0 mm 3 mps 756 mmHg 37%
    15:00 +27°C° 0 mm 3 mps 755 mmHg 36%
    16:00 +26°C° 0 mm 2 mps 755 mmHg 40%
    17:00 +26°C° 0 mm 2 mps 755 mmHg 44%
    18:00 +25°C° 0 mm 2 mps 755 mmHg 48%
    19:00 +23°C° 0 mm 2 mps 755 mmHg 52%
    20:00 +20°C° 0 mm 2 mps 755 mmHg 56%
    21:00 +18°C° 0 mm 2 mps 755 mmHg 60%
    22:00 +17°C° 0 mm 2 mps 755 mmHg 62%
    23:00 +17°C° 0 mm 2 mps 755 mmHg 64%

    26 August, Sunday

    Time Temperature Precipitation Wind Pressure Humidity
    00:00 +16°C° 0 mm 2 mps 755 mmHg 65%
    01:00 +16°C° 0 mm 2 mps 756 mmHg 67%
    02:00 +15°C° 0 mm 2 mps 756 mmHg 68%
    03:00 +15°C° 0 mm 2 mps 756 mmHg 70%
    04:00 +15°C° 0 mm 2 mps 756 mmHg 71%
    05:00 +15°C° 0 mm 2 mps 756 mmHg 72%
    06:00 +14°C° 0 mm 2 mps 756 mmHg 73%
    07:00 +17°C° 0 mm 2 mps 756 mmHg 66%
    08:00 +19°C° 0 mm 2 mps 756 mmHg 60%
    09:00 +21°C° 0 mm 2 mps 756 mmHg 53%
    10:00 +24°C° 0 mm 3 mps 756 mmHg 48%
    11:00 +26°C° 0 mm 3 mps 756 mmHg 43%
    12:00 +27°C° 0 mm 3 mps 756 mmHg 39%
    13:00 +28°C° 0 mm 3 mps 756 mmHg 38%
    14:00 +28°C° 0 mm 3 mps 755 mmHg 37%
    15:00 +28°C° 0 mm 3 mps 755 mmHg 36%
    16:00 +28°C° 0 mm 2 mps 755 mmHg 40%
    17:00 +27°C° 0 mm 2 mps 755 mmHg 44%
    18:00 +26°C° 0 mm 2 mps 755 mmHg 48%
    19:00 +24°C° 0 mm 2 mps 755 mmHg 53%
    20:00 +21°C° 0 mm 2 mps 755 mmHg 57%
    21:00 +19°C° 0 mm 2 mps 755 mmHg 62%
    22:00 +19°C° 0 mm 2 mps 755 mmHg 66%
    23:00 +18°C° 0 mm 2 mps 755 mmHg 70%
    Show more